FW0428 Weather Reports


Display with metric or nautical units.
time (UTC)temp
F
wind
direction
speed
MPH
gust
MPH
rain 1hr
in
rain 24hr
in
rain mn
in
humidity
%
barometer
mb
20260901043038 87 280 0.0 0.0 0.00 0.00 0.00 57 1013.3
20260901033147 88 281 0.0 2.0 0.00 0.00 0.00 55 1013.2
20260901031646 89 277 0.0 2.0 0.00 0.00 0.00 54 1013.2
20260901030138 89 275 0.0 1.0 0.00 0.00 0.00 53 1013.0
20260901023006 90 279 0.0 4.0 0.00 0.00 0.00 51 1012.7
20260901021649 90 275 0.0 3.0 0.00 0.00 0.00 51 1012.6
20260901013134 92 227 0.0 1.0 0.00 0.00 0.00 48 1012.2
20260901010121 93 278 0.0 3.0 0.00 0.00 0.00 45 1012.2
20260901000144 96 288 1.0 2.0 0.00 0.00 0.00 39 1011.8
20260831233036 97 299 0.0 2.0 0.00 0.00 0.00 38 1011.6
20260831231608 98 278 0.0 3.0 0.00 0.00 0.00 36 1011.7
20260831200138 100 320 0.0 3.0 0.00 0.00 0.00 38 1013.5
20260831194656 101 102 0.0 2.0 0.00 0.00 0.00 38 1013.6
20260831183017 98 274 0.0 4.0 0.00 0.00 0.00 41 1014.5
20260831181604 97 134 1.0 3.0 0.00 0.00 0.00 42 1014.7
20260831173113 96 205 0.0 5.0 0.00 0.00 0.00 44 1015.3
20260831170110 97 160 0.0 3.0 0.00 0.00 0.00 44 1015.8
20260831154637 92 311 0.0 1.0 0.00 0.00 0.00 53 1016.1
20260831144602 84 291 0.0 1.0 0.00 0.00 0.00 71 1015.7
20260831140156 81 273 0.0 1.0 0.00 0.00 0.00 76 1015.6
20260831131614 78 255 0.0 0.0 0.00 0.00 0.00 79 1015.2
20260831120147 75 255 0.0 0.0 0.00 0.00 0.00 79 1014.3
20260831111636 75 255 0.0 1.0 0.00 0.00 0.00 78 1013.9
20260831110113 76 255 0.0 0.0 0.00 0.00 0.00 76 1013.9
20260831104641 76 255 0.0 0.0 0.00 0.00 0.00 76 1013.9
20260831103006 76 255 0.0 0.0 0.00 0.00 0.00 75 1014.0
20260831091652 79 255 0.0 0.0 0.00 0.00 0.00 69 1013.6
20260831090035 79 255 0.0 0.0 0.00 0.00 0.00 68 1013.5
20260831083056 80 255 0.0 0.0 0.00 0.00 0.00 66 1013.4
20260831070005 82 259 0.0 3.0 0.00 0.00 0.00 61 1013.5
20260831064519 82 263 0.0 1.0 0.00 0.00 0.00 60 1013.5
20260831063034 83 247 0.0 1.0 0.00 0.00 0.00 59 1013.6
20260831061554 83 257 0.0 0.0 0.00 0.00 0.00 58 1013.6
20260831060010 84 263 0.0 1.0 0.00 0.00 0.00 56 1013.4
20260831054548 84 273 0.0 1.0 0.00 0.00 0.00 56 1013.3
20260831053032 85 83 0.0 0.0 0.00 0.00 0.00 55 1013.2
20260831051601 85 281 0.0 0.0 0.00 0.00 0.00 55 1013.1
20260831050202 85 282 0.0 0.0 0.00 0.00 0.00 54 1012.9